• In Italy
  • List of Countries
  • For 7 days
  • Water Temperature
  • Satellite Maps
  • Weather Map
  • Weather Widgets
  • user-avatar
    Login

    Hourly Weather Lucknow

    Today, 21 September, Thursday

    Time Temperature Precipitation Wind Pressure Humidity
    00:00 +29°C° 1.6 mm 4 mps 740 mmHg 83%
    01:00 +29°C° 1.6 mm 4 mps 740 mmHg 84%
    02:00 +28°C° 1.6 mm 4 mps 740 mmHg 86%
    03:00 +28°C° 0.5 mm 4 mps 740 mmHg 87%
    04:00 +28°C° 0.5 mm 4 mps 740 mmHg 89%
    05:00 +27°C° 0.5 mm 4 mps 740 mmHg 90%
    06:00 +28°C° 0.2 mm 5 mps 740 mmHg 88%
    07:00 +28°C° 0.2 mm 6 mps 740 mmHg 86%
    08:00 +28°C° 0.2 mm 6 mps 741 mmHg 84%
    09:00 +28°C° 0.5 mm 6 mps 741 mmHg 84%
    10:00 +29°C° 0.5 mm 6 mps 741 mmHg 85%
    11:00 +29°C° 0.5 mm 6 mps 741 mmHg 85%
    12:00 +29°C° 1.8 mm 6 mps 740 mmHg 84%
    13:00 +29°C° 1.8 mm 6 mps 740 mmHg 84%
    14:00 +29°C° 1.8 mm 6 mps 739 mmHg 83%
    15:00 +29°C° 1 mm 6 mps 739 mmHg 84%
    16:00 +29°C° 1 mm 6 mps 739 mmHg 85%
    17:00 +29°C° 1 mm 6 mps 739 mmHg 86%
    18:00 +28°C° 1.2 mm 6 mps 739 mmHg 87%
    19:00 +28°C° 1.2 mm 6 mps 740 mmHg 88%
    20:00 +28°C° 1.2 mm 6 mps 740 mmHg 89%
    21:00 +27°C° 2.1 mm 6 mps 740 mmHg 90%
    22:00 +27°C° 2.1 mm 5 mps 740 mmHg 91%
    23:00 +27°C° 2.1 mm 5 mps 740 mmHg 92%

    Tomorrow, 22 September, Friday

    Time Temperature Precipitation Wind Pressure Humidity
    00:00 +27°C° 1.7 mm 5 mps 740 mmHg 92%
    01:00 +27°C° 1.7 mm 5 mps 740 mmHg 92%
    02:00 +26°C° 1.7 mm 5 mps 739 mmHg 92%
    03:00 +26°C° 1.3 mm 5 mps 739 mmHg 92%
    04:00 +26°C° 1.3 mm 5 mps 739 mmHg 91%
    05:00 +26°C° 1.3 mm 5 mps 740 mmHg 91%
    06:00 +26°C° 0.6 mm 5 mps 740 mmHg 91%
    07:00 +27°C° 0.6 mm 5 mps 741 mmHg 90%
    08:00 +27°C° 0.6 mm 5 mps 741 mmHg 90%
    09:00 +28°C° 0.4 mm 6 mps 741 mmHg 86%
    10:00 +30°C° 0.4 mm 6 mps 741 mmHg 82%
    11:00 +32°C° 0.4 mm 6 mps 741 mmHg 78%
    12:00 +33°C° 1.1 mm 6 mps 741 mmHg 76%
    13:00 +33°C° 1.1 mm 6 mps 740 mmHg 74%
    14:00 +34°C° 1.1 mm 6 mps 740 mmHg 72%
    15:00 +33°C° 0.9 mm 5 mps 739 mmHg 75%
    16:00 +32°C° 0.9 mm 5 mps 739 mmHg 79%
    17:00 +30°C° 0.9 mm 4 mps 739 mmHg 82%
    18:00 +30°C° 1.8 mm 4 mps 740 mmHg 84%
    19:00 +29°C° 1.8 mm 4 mps 740 mmHg 85%
    20:00 +29°C° 1.8 mm 4 mps 741 mmHg 87%
    21:00 +28°C° 0.4 mm 3 mps 741 mmHg 88%
    22:00 +28°C° 0.4 mm 3 mps 741 mmHg 89%
    23:00 +28°C° 0.4 mm 3 mps 741 mmHg 90%

    Day after tomorrow, 23 September, Saturday

    Time Temperature Precipitation Wind Pressure Humidity
    00:00 +28°C° 0.6 mm 2 mps 741 mmHg 90%
    01:00 +28°C° 0.6 mm 2 mps 740 mmHg 91%
    02:00 +27°C° 0.6 mm 2 mps 740 mmHg 91%
    03:00 +27°C° 0.1 mm 2 mps 740 mmHg 92%
    04:00 +27°C° 0.1 mm 2 mps 741 mmHg 92%
    05:00 +27°C° 0.1 mm 2 mps 741 mmHg 92%
    06:00 +27°C° 0 mm 2 mps 741 mmHg 89%
    07:00 +28°C° 0 mm 3 mps 742 mmHg 86%
    08:00 +29°C° 0 mm 3 mps 743 mmHg 83%
    09:00 +30°C° 0.1 mm 3 mps 742 mmHg 78%
    10:00 +32°C° 0.1 mm 4 mps 742 mmHg 73%
    11:00 +34°C° 0.1 mm 4 mps 742 mmHg 68%
    12:00 +34°C° 0.5 mm 4 mps 742 mmHg 66%
    13:00 +35°C° 0.5 mm 4 mps 741 mmHg 65%
    14:00 +35°C° 0.5 mm 4 mps 740 mmHg 64%
    15:00 +34°C° 1.1 mm 3 mps 740 mmHg 69%
    16:00 +33°C° 1.1 mm 3 mps 740 mmHg 73%
    17:00 +32°C° 1.1 mm 2 mps 740 mmHg 77%
    18:00 +31°C° 0.2 mm 2 mps 740 mmHg 79%
    19:00 +30°C° 0.2 mm 2 mps 741 mmHg 81%
    20:00 +30°C° 0.2 mm 2 mps 741 mmHg 83%
    21:00 +29°C° 0.1 mm 2 mps 741 mmHg 84%
    22:00 +29°C° 0.1 mm 2 mps 741 mmHg 85%
    23:00 +29°C° 0.1 mm 2 mps 741 mmHg 87%

    24 September, Sunday

    Time Temperature Precipitation Wind Pressure Humidity
    00:00 +28°C° 0.9 mm 2 mps 741 mmHg 88%
    01:00 +28°C° 0.9 mm 2 mps 741 mmHg 90%
    02:00 +28°C° 0.9 mm 2 mps 740 mmHg 91%
    03:00 +28°C° 0.1 mm 2 mps 740 mmHg 91%
    04:00 +28°C° 0.1 mm 2 mps 741 mmHg 92%
    05:00 +27°C° 0.1 mm 2 mps 741 mmHg 92%
    06:00 +28°C° 0 mm 2 mps 741 mmHg 89%
    07:00 +29°C° 0 mm 2 mps 742 mmHg 85%
    08:00 +30°C° 0 mm 2 mps 742 mmHg 81%
    09:00 +31°C° 0.2 mm 2 mps 742 mmHg 76%
    10:00 +34°C° 0.2 mm 3 mps 742 mmHg 71%
    11:00 +35°C° 0.2 mm 3 mps 742 mmHg 66%
    12:00 +35°C° 1.2 mm 3 mps 741 mmHg 65%
    13:00 +35°C° 1.2 mm 2 mps 741 mmHg 65%
    14:00 +35°C° 1.2 mm 2 mps 740 mmHg 64%
    15:00 +35°C° 0.8 mm 2 mps 740 mmHg 67%
    16:00 +34°C° 0.8 mm 2 mps 740 mmHg 70%
    17:00 +32°C° 0.8 mm 1 mps 740 mmHg 74%
    18:00 +32°C° 0.1 mm 1 mps 740 mmHg 76%
    19:00 +31°C° 0.1 mm 1 mps 740 mmHg 79%
    20:00 +30°C° 0.1 mm 1 mps 740 mmHg 81%
    21:00 +30°C° 0 mm 1 mps 740 mmHg 83%
    22:00 +29°C° 0 mm 1 mps 740 mmHg 84%
    23:00 +29°C° 0 mm 1 mps 740 mmHg 85%

    25 September, Monday

    Time Temperature Precipitation Wind Pressure Humidity
    00:00 +29°C° 0.6 mm 1 mps 740 mmHg 86%
    01:00 +29°C° 0.6 mm 1 mps 739 mmHg 87%
    02:00 +28°C° 0.6 mm 1 mps 739 mmHg 88%
    03:00 +28°C° 0.1 mm 1 mps 739 mmHg 89%
    04:00 +28°C° 0.1 mm 1 mps 739 mmHg 89%
    05:00 +28°C° 0.1 mm 1 mps 740 mmHg 90%
    06:00 +29°C° 0 mm 2 mps 740 mmHg 86%
    07:00 +30°C° 0 mm 2 mps 741 mmHg 83%
    08:00 +31°C° 0 mm 2 mps 741 mmHg 79%
    09:00 +32°C° 0.7 mm 2 mps 741 mmHg 74%
    10:00 +34°C° 0.7 mm 2 mps 741 mmHg 69%
    11:00 +35°C° 0.7 mm 2 mps 741 mmHg 64%
    12:00 +35°C° 1.1 mm 2 mps 740 mmHg 63%
    13:00 +35°C° 1.1 mm 2 mps 740 mmHg 63%
    14:00 +36°C° 1.1 mm 2 mps 739 mmHg 62%
    15:00 +35°C° 2.5 mm 2 mps 739 mmHg 67%
    16:00 +33°C° 2.5 mm 1 mps 739 mmHg 73%
    17:00 +32°C° 2.5 mm 1 mps 739 mmHg 78%
    18:00 +31°C° 0.7 mm 1 mps 739 mmHg 80%
    19:00 +31°C° 0.7 mm 2 mps 739 mmHg 81%
    20:00 +30°C° 0.7 mm 2 mps 740 mmHg 82%
    21:00 +30°C° 0 mm 2 mps 740 mmHg 83%
    22:00 +30°C° 0 mm 2 mps 740 mmHg 84%
    23:00 +29°C° 0 mm 2 mps 739 mmHg 85%

    26 September, Tuesday

    Time Temperature Precipitation Wind Pressure Humidity
    00:00 +29°C° 0.2 mm 2 mps 739 mmHg 85%
    01:00 +29°C° 0.2 mm 2 mps 739 mmHg 86%
    02:00 +29°C° 0.2 mm 2 mps 739 mmHg 87%
    03:00 +29°C° 0.5 mm 2 mps 739 mmHg 87%
    04:00 +29°C° 0.5 mm 2 mps 739 mmHg 87%
    05:00 +28°C° 0.5 mm 2 mps 740 mmHg 87%
    06:00 +29°C° 0.4 mm 2 mps 740 mmHg 83%
    07:00 +30°C° 0.4 mm 3 mps 741 mmHg 80%
    08:00 +31°C° 0.4 mm 3 mps 741 mmHg 77%
    09:00 +33°C° 1.3 mm 3 mps 741 mmHg 72%
    10:00 +34°C° 1.3 mm 2 mps 741 mmHg 67%
    11:00 +35°C° 1.3 mm 2 mps 741 mmHg 63%
    12:00 +35°C° 0.5 mm 2 mps 741 mmHg 62%
    13:00 +34°C° 0.5 mm 1 mps 740 mmHg 62%
    14:00 +34°C° 0.5 mm 1 mps 739 mmHg 62%
    15:00 +33°C° 0.5 mm 1 mps 739 mmHg 66%
    16:00 +33°C° 0.5 mm 1 mps 739 mmHg 70%
    17:00 +32°C° 0.5 mm 1 mps 739 mmHg 74%
    18:00 +32°C° 0 mm 1 mps 740 mmHg 74%
    19:00 +31°C° 0 mm 1 mps 740 mmHg 75%
    20:00 +31°C° 0 mm 1 mps 740 mmHg 75%
    21:00 +30°C° 0.2 mm 1 mps 740 mmHg 76%
    22:00 +30°C° 0.2 mm 1 mps 740 mmHg 77%
    23:00 +30°C° 0.2 mm 1 mps 740 mmHg 78%
    Show more